星链-6110 (STARLINK-6110 )

导读

STARLINK-6110是美国太空探索技术公司SpaceX星链星座的成员卫星,于2023年6月12日发射升空,旨在为全球提供低延迟、高速率的卫星互联网服务,服务覆盖偏远地区与网络基础设施薄弱区域,星链星座通过大量低轨卫星组网,该卫星入轨进一步扩充了星链系统的服务容量。

基本信息
目录编号:
56907
目录名称:
STARLINK-6110
国际标识:
2023-083AH
轨道中心:
EARTH
卫星名称:
星链-6110
卫星全名:
星链-6110 (STARLINK-6110 )
卫星状态:
在轨 (已飞行1098 天)
发射日期:
2023-06-12 UTC
国别 :
美国 (US)
星等 :
--
轨道信息
数据来源 国际轨道数据
星历时间: 2026-06-14T00:30:45+0800
1天前
查看轨道信息
半长轴: 6861.224km
偏心率: 0.0001726
轨道倾角: 43.006°
近地点辐角 280.306°
升交点赤经 248.215°
平近点角 79.760°
近地点: 481.902km
远地点: 484.272km
周期: 94.268分钟
每日圈数: 15.275674
详细信息
固有亮度:
5
最大亮度:
2.4
卫星平台:
Starlink v1.5
覆盖范围:
全球
运营商:
太空探索技术公司
运营商所在国:
美国
制造商(研发单位):
太空探索技术公司
制造商所在国:
美国
使用方式:
暂无
卫星简介
星链(Starlink)计划是由太空探索技术公司(SpaceX)提出的一个巨型低轨卫星互联网星座项目,计划在2019年至2024年间在太空搭建由约1.2万颗卫星组成的“星链”网络,其中1584颗将部署在地球上空550千米处的近地轨道,并从2020年开始工作。该卫星仍在工作。
2D轨道图
3D轨道图
轨道高度分析图
轨道倾角分析图
轨道综合分析图
查看轨道综合分析图